Location: Ferchesar
(52.6477°N, 12.4298°E)
Time: 20:32:41
(UTC+02:00)

A-11 Canister half - Pass Details

Date: 07 March 2021
Orbit: 1525 x 1683 km, 47.3° (Epoch: 11 April)

Event Time Altitude Azimuth Distance (km) Brightness Sun altitude
Exits shadow 04:34:03 24° 225° (SW) 2,832 9.9 -20.2°
Maximum altitude 04:39:56 54° 160° (SSE) 1,855 9.4 -19.3°
Drops below altitude 10° 04:48:57 10° 87° (E) 3,720 12.2 -18.0°
Sets 04:52:03 0° 83° (E) 4,692 13.2 -17.6°
